Temperature
-7 -8 -8 -8 -9 -9 -9 -10 -12 -12 -11 -11 -11 -11 -11 -11 -11 -11 -11 -10 -10 -9 -9 -8 -7 -7 -6 -5 -4 -2 -1 1 2 3 5 6 7 8
-7 -8 -8 -8 -9 -9 -9 -10 -11 -12 -12 -11 -11 -11 -11 -11 -11 -11 -11 -11 -10 -10 -9 -9 -8 -7 -6 -5 -4 -3 -2 -0 1 3 4 5 6 8
-7 -8 -8 -8 -9 -9 -9 -10 -11 -11 -12 -12 -11 -11 -11 -11 -11 -11 -11 -11 -10 -10 -10 -9 -8 -7 -6 -5 -5 -4 -2 -1 0 2 3 4 6 7
-7 -7 -8 -8 -9 -9 -9 -10 -11 -11 -12 -12 -11 -11 -11 -11 -11 -11 -11 -11 -11 -10 -10 -9 -8 -8 -7 -6 -5 -4 -3 -2 -1 1 2 4 5 6
-7 -8 -8 -8 -9 -9 -10 -10 -10 -11 -11 -11 -11 -11 -11 -11 -11 -11 -11 -11 -11 -11 -10 -10 -9 -8 -7 -6 -5 -4 -3 -2 -1 -0 1 3 4 5
-7 -7 -8 -8 -9 -9 -10 -10 -10 -10 -10 -11 -11 -11 -11 -11 -11 -12 -12 -12 -12 -11 -11 -10 -9 -8 -7 -6 -5 -4 -3 -3 -2 -1 1 2 3 5
-7 -7 -8 -8 -9 -9 -10 -10 -10 -10 -10 -10 -10 -11 -11 -11 -11 -12 -12 -12 -12 -12 -11 -10 -9 -8 -7 -6 -5 -4 -3 -3 -2 -1 0 1 2 4
-7 -7 -8 -8 -9 -9 -10 -10 -10 -9 -9 -10 -10 -11 -11 -11 -11 -12 -12 -12 -12 -12 -11 -11 -10 -9 -7 -6 -5 -4 -3 -3 -2 -1 -0 1 2 3
-7 -8 -8 -8 -9 -9 -9 -9 -9 -9 -10 -10 -11 -11 -11 -11 -12 -12 -12 -12 -12 -12 -12 -11 -10 -9 -7 -6 -5 -4 -3 -3 -2 -1 -1 1 2 3
-7 -8 -8 -8 -9 -9 -9 -9 -9 -10 -10 -11 -11 -11 -11 -11 -11 -11 -12 -12 -12 -12 -12 -12 -10 -9 -8 -6 -5 -4 -3 -2 -2 -1 -0 1 2 3
-7 -8 -8 -9 -9 -9 -9 -9 -9 -10 -10 -11 -11 -11 -11 -12 -12 -12 -12 -12 -12 -12 -12 -12 -11 -10 -8 -6 -5 -4 -3 -2 -2 -1 -0 1 2 3
-7 -8 -8 -9 -9 -9 -9 -9 -10 -10 -10 -11 -11 -11 -11 -12 -12 -13 -13 -13 -13 -13 -12 -12 -11 -10 -8 -6 -5 -4 -3 -2 -2 -1 -0 0 1 2
-7 -8 -8 -9 -9 -9 -9 -10 -10 -10 -10 -11 -11 -11 -12 -12 -12 -13 -13 -13 -13 -13 -12 -12 -11 -10 -10 -8 -5 -4 -3 -2 -1 -1 -0 0 1 2
-8 -8 -8 -9 -9 -10 -10 -10 -10 -11 -11 -11 -11 -12 -12 -12 -12 -12 -12 -13 -13 -12 -12 -12 -12 -11 -10 -9 -7 -4 -3 -2 -1 -1 -0 1 1 2
-8 -8 -9 -9 -10 -10 -10 -10 -11 -11 -11 -12 -12 -12 -12 -12 -12 -12 -12 -12 -12 -11 -11 -11 -11 -10 -10 -10 -8 -5 -3 -2 -1 -1 0 1 2 2
-8 -8 -9 -9 -9 -9 -10 -10 -10 -11 -12 -12 -12 -12 -12 -12 -12 -12 -12 -12 -11 -10 -10 -10 -10 -10 -9 -8 -7 -5 -4 -2 -1 -1 0 1 2 3
-8 -8 -9 -9 -9 -9 -9 -10 -10 -11 -11 -11 -12 -12 -12 -12 -12 -12 -12 -12 -12 -11 -10 -9 -9 -9 -8 -8 -7 -5 -3 -2 -1 -0 0 1 2 3
-8 -9 -8 -9 -9 -9 -10 -10 -10 -11 -11 -11 -12 -12 -12 -12 -12 -12 -12 -12 -11 -11 -10 -9 -9 -8 -8 -7 -6 -5 -3 -2 -1 -0 0 1 2 3
-8 -8 -8 -9 -9 -10 -10 -10 -11 -11 -11 -11 -12 -12 -12 -12 -12 -12 -12 -12 -11 -10 -9 -9 -9 -9 -8 -7 -5 -4 -2 -1 -1 0 1 1 2 3
-7 -8 -8 -9 -9 -10 -10 -10 -11 -11 -11 -11 -11 -12 -12 -12 -12 -12 -12 -12 -11 -10 -9 -9 -8 -8 -7 -6 -5 -3 -2 -1 -0 0 1 2 3 4
-7 -8 -8 -9 -9 -10 -10 -10 -11 -11 -11 -11 -11 -12 -12 -12 -12 -12 -11 -11 -11 -10 -9 -8 -7 -7 -7 -6 -5 -3 -2 -1 -0 0 1 2 3 4
-7 -8 -8 -9 -9 -10 -10 -10 -11 -11 -11 -11 -11 -12 -12 -12 -12 -11 -11 -11 -11 -10 -9 -8 -7 -6 -6 -6 -4 -3 -2 -1 -0 0 1 2 3 4
-7 -8 -8 -9 -9 -10 -10 -10 -11 -11 -11 -11 -11 -12 -12 -12 -12 -11 -11 -11 -10 -10 -9 -8 -7 -6 -5 -5 -4 -3 -2 -1 -0 1 1 3 3 5
Wind_Speed
11 12 11 11 11 11 12 13 14 19 22 12 6 7 12 17 23 23 22 29 34 35 34 34 33 32 31 30 28 26 24 21 19 18 19 18 18 17
10 11 12 11 11 12 13 13 14 17 21 15 11 10 12 17 24 23 22 32 33 34 33 32 32 31 30 29 28 26 24 21 18 17 18 18 17 16
12 12 15 13 12 12 12 13 14 14 19 19 14 12 13 15 16 18 21 20 22 31 32 31 31 30 29 28 26 25 23 21 19 17 17 17 16 14
13 13 15 13 14 13 13 14 14 14 17 22 17 13 15 14 14 15 15 17 16 27 31 31 30 29 28 27 26 25 23 21 20 18 17 16 15 14
13 14 15 14 15 13 14 15 14 15 15 17 18 15 13 12 14 14 15 13 16 21 25 26 27 27 27 27 26 25 23 22 20 19 18 16 15 15
14 14 15 14 15 15 15 16 15 15 15 15 16 16 14 12 11 12 13 11 13 14 18 21 24 25 25 25 25 24 23 22 21 19 18 17 16 16
14 14 14 17 20 18 15 13 13 13 13 14 15 14 13 11 11 11 14 13 12 11 12 12 12 11 13 18 21 22 22 22 21 20 20 19 17 16
13 12 12 15 19 24 26 26 23 18 15 14 14 14 15 14 12 12 12 14 13 6 8 11 9 11 10 10 18 22 22 22 22 21 21 20 18 17
10 10 10 11 17 11 20 26 24 24 23 16 15 15 16 14 14 16 14 15 15 10 10 14 10 12 11 13 22 23 23 24 23 23 22 21 19 18
9 10 11 11 13 16 16 15 11 12 16 13 13 15 15 14 14 15 15 14 13 11 10 12 10 10 12 11 20 23 24 24 24 23 23 22 20 18
10 10 11 11 19 24 17 12 11 11 17 21 22 21 24 24 19 11 10 11 12 10 7 7 8 9 10 10 14 21 23 24 25 25 24 22 20 17
8 9 15 15 20 23 14 10 11 13 11 10 13 17 15 15 19 11 9 10 10 7 5 5 6 5 5 5 7 8 12 20 24 25 25 23 20 12
9 7 7 16 20 21 18 10 16 16 8 9 10 10 9 8 8 8 9 9 10 9 6 4 5 5 5 5 4 5 6 7 11 15 21 23 21 16
8 6 8 17 19 20 15 17 21 17 8 10 10 10 10 9 8 9 10 11 11 13 10 9 8 7 7 7 5 5 5 6 8 9 9 16 19 20
7 12 14 17 17 12 15 19 15 9 9 10 11 11 9 9 9 9 9 9 11 12 12 14 13 11 10 9 7 5 4 5 6 7 9 10 10 10
7 9 13 13 12 12 12 11 8 8 10 10 11 10 10 9 9 8 9 8 8 7 9 12 13 14 12 12 11 10 7 5 4 5 6 8 9 10
6 3 2 4 5 6 6 7 7 8 9 9 10 11 11 11 10 9 8 7 7 7 7 6 9 11 13 11 10 11 10 9 8 7 6 8 9 11
6 2 4 5 6 7 8 9 8 9 9 10 10 10 11 11 11 10 8 8 8 8 7 6 5 5 7 10 17 13 10 9 7 7 6 7 10 10
4 3 4 5 6 7 7 8 9 9 9 9 10 10 10 11 11 10 10 9 8 8 7 6 6 6 7 7 8 19 13 9 7 7 7 7 8 9
3 4 5 5 6 7 7 8 8 9 8 9 9 9 9 10 10 10 10 10 10 10 8 6 6 8 8 6 4 5 18 12 8 8 7 5 5 7
4 5 5 5 5 6 7 8 8 9 9 9 9 10 9 9 10 10 11 15 12 9 10 8 7 11 8 5 6 6 7 17 14 7 6 6 6 7
5 5 5 5 5 6 7 7 8 8 9 8 9 9 9 9 10 12 11 11 10 10 11 10 9 8 7 9 10 8 6 6 14 19 14 8 6 9
5 5 4 5 5 5 6 7 8 8 8 8 8 9 9 9 10 10 11 11 11 11 11 10 7 6 7 9 9 8 8 7 6 7 8 14 15 10
Wind_Direction
248 251 253 258 257 256 258 260 271 288 294 291 276 253 268 275 280 284 282 288 292 294 295 295 295 294 292 291 291 291 288 281 276 270 255 249 254 257
250 252 255 259 260 261 261 261 259 267 281 287 284 276 276 281 283 285 285 289 292 294 293 292 291 291 291 288 285 287 285 282 278 275 261 253 256 264
254 255 259 260 264 265 265 264 264 265 275 284 283 280 274 275 279 279 279 279 283 288 289 290 288 286 285 285 282 284 282 279 276 275 270 260 259 272
257 258 262 265 265 266 268 268 269 266 270 280 284 282 276 275 274 274 280 281 280 284 287 287 285 283 281 280 278 279 279 275 275 273 274 272 268 274
256 258 262 265 268 268 269 271 271 271 267 272 279 280 278 275 276 277 275 275 278 281 286 287 286 283 281 278 275 274 275 272 270 270 271 275 277 277
255 256 258 259 264 268 271 269 270 270 270 271 276 279 279 274 271 279 283 278 277 281 282 282 282 282 281 278 274 271 270 270 268 267 268 268 271 276
258 256 256 261 267 275 279 278 275 277 277 276 279 284 284 285 283 281 281 283 278 273 275 275 277 277 279 278 273 269 266 264 263 261 263 262 262 267
258 259 258 268 277 284 289 292 290 288 289 289 290 288 288 287 285 281 282 283 284 261 263 274 270 273 270 265 266 264 260 258 257 254 256 258 257 258
253 260 269 271 285 283 286 289 289 289 291 292 289 286 287 286 283 279 273 270 271 269 273 277 271 271 268 263 263 258 255 251 250 248 248 251 253 252
249 253 262 269 275 283 280 282 271 272 280 283 274 276 278 279 273 273 274 273 270 266 258 269 270 269 269 260 261 254 249 245 243 242 241 243 247 247
253 255 261 266 282 291 295 291 284 282 293 295 297 300 301 303 302 298 291 285 283 279 256 257 270 276 268 257 249 248 243 240 237 236 236 236 239 238
260 258 271 281 291 297 299 294 294 295 292 293 299 300 296 294 298 294 286 280 280 280 248 246 264 278 282 255 242 240 236 234 232 230 231 231 230 227
266 262 262 288 296 301 306 301 297 307 311 302 297 294 290 281 278 274 263 260 263 259 259 267 273 274 278 293 285 252 235 228 225 225 226 224 223 217
259 261 270 291 300 305 309 304 309 319 315 305 302 303 303 298 291 284 273 260 253 255 254 248 254 262 275 284 280 281 260 232 218 212 210 216 219 216
256 271 285 297 307 309 304 308 316 314 305 303 305 304 300 294 294 293 284 272 262 254 250 241 241 246 247 254 268 283 283 248 226 213 204 204 204 201
272 278 288 299 303 301 304 308 304 298 303 301 303 302 302 302 301 301 301 299 287 273 251 239 234 232 238 241 250 261 265 267 245 226 213 205 199 198
244 238 253 289 295 297 298 297 297 303 307 306 306 308 310 311 309 309 301 299 288 289 290 264 236 228 230 233 239 246 251 253 252 237 215 205 200 198
246 229 263 278 289 297 303 305 305 306 307 309 308 309 311 311 311 309 305 299 295 291 287 282 262 229 218 233 229 240 244 248 246 235 217 206 200 197
238 235 257 270 281 290 294 297 300 302 302 303 305 308 310 311 311 311 310 306 300 294 286 276 257 232 223 230 228 214 223 232 233 231 217 206 196 194
205 233 251 263 274 284 291 295 298 302 303 304 305 306 309 312 311 310 310 306 304 300 293 275 251 237 231 235 253 226 210 217 223 220 211 201 193 186
220 234 245 257 269 280 287 291 294 297 299 303 304 307 310 312 310 309 308 308 308 301 296 288 267 263 258 249 246 239 220 216 221 222 196 186 179 175
220 232 244 254 267 276 285 290 294 296 299 301 304 308 311 310 308 309 309 308 304 297 293 288 275 258 225 223 229 233 232 218 224 237 244 234 185 180
216 226 240 256 266 275 282 287 291 295 296 299 305 310 313 313 310 308 307 305 303 302 301 296 286 250 228 224 227 230 229 218 201 202 225 234 231 231
Height
1458 1456 1453 1450 1447 1444 1440 1435 1429 1416 1401 1401 1399 1397 1395 1391 1387 1383 1378 1373 1370 1366 1362 1358 1355 1352 1350 1348 1347 1347 1349 1352 1356 1361 1367 1373 1379 1385
1450 1447 1444 1442 1439 1435 1431 1427 1421 1414 1399 1391 1390 1388 1385 1382 1379 1375 1370 1366 1361 1357 1353 1350 1348 1345 1343 1342 1342 1342 1343 1345 1349 1353 1359 1365 1371 1377
1442 1439 1436 1434 1430 1426 1422 1417 1412 1407 1396 1384 1383 1379 1376 1373 1369 1366 1361 1357 1351 1347 1344 1342 1340 1338 1337 1336 1336 1336 1337 1339 1343 1347 1351 1358 1364 1369
1434 1431 1427 1425 1422 1418 1413 1408 1403 1398 1391 1379 1373 1371 1367 1364 1360 1356 1352 1348 1343 1338 1335 1333 1331 1329 1329 1329 1329 1330 1331 1333 1336 1340 1344 1350 1357 1362
1425 1422 1420 1417 1413 1409 1405 1399 1394 1389 1383 1375 1366 1362 1358 1355 1351 1347 1343 1338 1334 1330 1326 1323 1321 1320 1320 1320 1321 1323 1325 1327 1330 1334 1338 1343 1349 1355
1417 1415 1412 1409 1405 1401 1396 1390 1386 1380 1375 1368 1360 1354 1350 1346 1343 1338 1333 1329 1325 1322 1318 1315 1312 1311 1311 1312 1313 1315 1318 1321 1324 1328 1332 1337 1342 1349
1409 1407 1404 1401 1397 1394 1389 1384 1379 1373 1367 1361 1353 1347 1343 1339 1336 1331 1326 1321 1316 1314 1310 1307 1305 1302 1302 1303 1305 1308 1311 1314 1318 1323 1327 1332 1337 1343
1401 1398 1396 1393 1390 1385 1382 1377 1373 1367 1361 1355 1348 1342 1336 1332 1327 1323 1319 1314 1308 1306 1304 1299 1298 1295 1294 1295 1297 1300 1304 1308 1312 1317 1322 1327 1332 1338
1393 1391 1388 1385 1382 1377 1372 1368 1364 1359 1355 1350 1341 1334 1328 1324 1319 1314 1310 1306 1301 1299 1298 1291 1290 1287 1287 1287 1290 1293 1296 1301 1306 1311 1317 1322 1327 1333
1386 1384 1381 1377 1374 1369 1364 1359 1355 1351 1346 1340 1333 1326 1321 1315 1311 1306 1302 1297 1293 1291 1290 1285 1282 1280 1279 1279 1281 1285 1289 1294 1299 1305 1310 1316 1322 1328
1379 1377 1374 1370 1366 1363 1359 1353 1347 1342 1337 1332 1327 1320 1314 1308 1303 1299 1294 1291 1286 1284 1283 1280 1276 1274 1272 1272 1274 1278 1282 1286 1292 1298 1304 1310 1317 1324
1371 1369 1367 1363 1360 1357 1353 1347 1340 1334 1328 1322 1317 1311 1305 1299 1295 1291 1287 1284 1280 1277 1275 1275 1272 1272 1269 1267 1269 1272 1275 1280 1286 1291 1298 1304 1311 1318
1364 1362 1360 1357 1354 1351 1347 1341 1335 1330 1322 1316 1309 1302 1297 1292 1287 1283 1280 1277 1274 1271 1271 1271 1269 1268 1268 1264 1264 1266 1270 1274 1279 1285 1291 1298 1305 1312
1358 1356 1353 1351 1348 1345 1340 1335 1331 1324 1317 1310 1303 1296 1291 1285 1280 1276 1273 1270 1267 1264 1263 1264 1263 1263 1263 1262 1261 1262 1266 1269 1274 1279 1285 1292 1300 1306
1352 1350 1348 1345 1342 1338 1334 1329 1325 1318 1311 1305 1298 1292 1286 1280 1274 1270 1266 1262 1259 1257 1256 1256 1256 1257 1258 1258 1257 1259 1261 1265 1270 1275 1280 1286 1293 1300
1346 1344 1342 1340 1336 1332 1328 1324 1319 1314 1308 1301 1294 1287 1281 1275 1270 1265 1260 1256 1253 1251 1250 1250 1250 1251 1252 1253 1254 1254 1257 1261 1265 1270 1275 1282 1288 1295
1340 1338 1336 1334 1330 1327 1323 1319 1314 1309 1303 1297 1290 1283 1277 1271 1265 1261 1256 1252 1248 1245 1244 1244 1244 1245 1246 1248 1249 1250 1253 1256 1260 1265 1271 1276 1282 1289
1335 1332 1331 1328 1325 1322 1318 1314 1310 1305 1299 1293 1287 1280 1274 1267 1261 1256 1252 1248 1244 1241 1239 1239 1239 1240 1242 1242 1243 1245 1248 1252 1257 1261 1266 1271 1277 1284
1329 1327 1326 1323 1321 1318 1314 1310 1305 1301 1296 1290 1284 1277 1271 1264 1258 1253 1248 1244 1240 1237 1235 1234 1235 1235 1237 1237 1237 1240 1243 1247 1252 1257 1261 1267 1272 1279
1323 1322 1321 1319 1316 1313 1310 1306 1302 1297 1292 1286 1280 1274 1268 1262 1255 1250 1244 1240 1235 1232 1230 1229 1229 1230 1231 1233 1235 1236 1239 1243 1247 1252 1257 1263 1270 1277
1319 1317 1316 1314 1312 1309 1306 1302 1298 1293 1288 1283 1277 1271 1265 1259 1252 1246 1241 1236 1232 1228 1224 1223 1223 1224 1226 1228 1230 1230 1234 1238 1242 1247 1253 1259 1266 1272
1314 1313 1312 1310 1308 1305 1302 1299 1295 1290 1285 1280 1274 1268 1262 1256 1249 1243 1237 1232 1227 1223 1219 1217 1216 1217 1219 1220 1222 1225 1229 1234 1238 1243 1249 1255 1260 1267
1309 1308 1307 1306 1304 1302 1299 1295 1291 1287 1282 1277 1271 1265 1259 1252 1246 1240 1234 1229 1223 1219 1215 1212 1211 1211 1212 1214 1217 1220 1224 1228 1233 1238 1244 1250 1257 1264